• In Portugal
  • List of Countries
  • For 7 days
  • Water Temperature
  • Satellite Maps
  • Weather Map
  • Weather Widgets
  • user-avatar
    Login

    Hourly Weather Kalat

    Today, 23 November, Thursday

    Time Temperature Precipitation Wind Pressure Humidity
    00:00 -10°C° 0 mm 3 mps 470 mmHg 29%
    01:00 -10°C° 0 mm 3 mps 470 mmHg 28%
    02:00 -10°C° 0 mm 3 mps 470 mmHg 27%
    03:00 -10°C° 0 mm 3 mps 470 mmHg 25%
    04:00 -9°C° 0 mm 2 mps 470 mmHg 24%
    05:00 -10°C° 0 mm 2 mps 469 mmHg 22%
    06:00 -9°C° 0 mm 2 mps 470 mmHg 22%
    07:00 -9°C° 0 mm 2 mps 470 mmHg 23%
    08:00 -9°C° 0 mm 2 mps 470 mmHg 23%
    09:00 -7°C° 0 mm 2 mps 471 mmHg 22%
    10:00 -5°C° 0 mm 2 mps 473 mmHg 22%
    11:00 -2°C° 0 mm 1 mps 474 mmHg 21%
    12:00 -3°C° 0 mm 2 mps 474 mmHg 23%
    13:00 -3°C° 0 mm 2 mps 474 mmHg 25%
    14:00 -3°C° 0 mm 2 mps 474 mmHg 27%
    15:00 -4°C° 0 mm 2 mps 473 mmHg 32%
    16:00 -4°C° 0 mm 1 mps 472 mmHg 37%
    17:00 -6°C° 0 mm 1 mps 471 mmHg 42%
    18:00 -6°C° 0 mm 1 mps 471 mmHg 43%
    19:00 -8°C° 0 mm 2 mps 471 mmHg 44%
    20:00 -8°C° 0 mm 2 mps 471 mmHg 45%
    21:00 -9°C° 0 mm 2 mps 471 mmHg 44%
    22:00 -9°C° 0 mm 2 mps 471 mmHg 44%
    23:00 -10°C° 0 mm 3 mps 471 mmHg 44%

    Tomorrow, 24 November, Friday

    Time Temperature Precipitation Wind Pressure Humidity
    00:00 -10°C° 0 mm 3 mps 471 mmHg 43%
    01:00 -10°C° 0 mm 3 mps 471 mmHg 43%
    02:00 -10°C° 0 mm 3 mps 471 mmHg 43%
    03:00 -10°C° 0 mm 3 mps 471 mmHg 43%
    04:00 -10°C° 0 mm 3 mps 470 mmHg 43%
    05:00 -10°C° 0 mm 3 mps 470 mmHg 44%
    06:00 -10°C° 0 mm 3 mps 471 mmHg 44%
    07:00 -10°C° 0 mm 3 mps 471 mmHg 44%
    08:00 -9°C° 0 mm 3 mps 471 mmHg 45%
    09:00 -8°C° 0 mm 3 mps 473 mmHg 43%
    10:00 -6°C° 0 mm 3 mps 474 mmHg 42%
    11:00 -4°C° 0 mm 3 mps 475 mmHg 41%
    12:00 -4°C° 0 mm 3 mps 475 mmHg 45%
    13:00 -4°C° 0 mm 3 mps 475 mmHg 49%
    14:00 -4°C° 0 mm 3 mps 474 mmHg 54%
    15:00 -4°C° 0.1 mm 2 mps 474 mmHg 59%
    16:00 -5°C° 0.1 mm 2 mps 473 mmHg 64%
    17:00 -6°C° 0.1 mm 2 mps 473 mmHg 69%
    18:00 -6°C° 0.1 mm 2 mps 473 mmHg 71%
    19:00 -6°C° 0.1 mm 2 mps 473 mmHg 72%
    20:00 -7°C° 0.1 mm 2 mps 473 mmHg 74%
    21:00 -7°C° 0.1 mm 2 mps 473 mmHg 74%
    22:00 -8°C° 0.1 mm 2 mps 473 mmHg 73%
    23:00 -8°C° 0.1 mm 2 mps 472 mmHg 73%

    Day after tomorrow, 25 November, Saturday

    Time Temperature Precipitation Wind Pressure Humidity
    00:00 -9°C° 0 mm 3 mps 472 mmHg 72%
    01:00 -10°C° 0 mm 3 mps 471 mmHg 71%
    02:00 -10°C° 0 mm 3 mps 471 mmHg 70%
    03:00 -12°C° 0 mm 3 mps 471 mmHg 68%
    04:00 -12°C° 0 mm 3 mps 470 mmHg 67%
    05:00 -12°C° 0 mm 3 mps 470 mmHg 66%
    06:00 -12°C° 0 mm 3 mps 470 mmHg 64%
    07:00 -12°C° 0 mm 3 mps 471 mmHg 62%
    08:00 -10°C° 0 mm 3 mps 471 mmHg 61%
    09:00 -10°C° 0 mm 4 mps 472 mmHg 57%
    10:00 -8°C° 0 mm 4 mps 473 mmHg 52%
    11:00 -5°C° 0 mm 4 mps 474 mmHg 48%
    12:00 -5°C° 0 mm 4 mps 474 mmHg 50%
    13:00 -5°C° 0 mm 4 mps 473 mmHg 51%
    14:00 -5°C° 0 mm 4 mps 473 mmHg 52%
    15:00 -6°C° 0.2 mm 3 mps 473 mmHg 61%
    16:00 -7°C° 0.2 mm 3 mps 473 mmHg 69%
    17:00 -7°C° 0.2 mm 2 mps 473 mmHg 77%
    18:00 -7°C° 0.3 mm 2 mps 473 mmHg 80%
    19:00 -8°C° 0.3 mm 2 mps 473 mmHg 82%
    20:00 -7°C° 0.3 mm 1 mps 473 mmHg 85%
    21:00 -7°C° 0.3 mm 1 mps 473 mmHg 86%
    22:00 -7°C° 0.3 mm 1 mps 473 mmHg 87%
    23:00 -8°C° 0.3 mm 1 mps 474 mmHg 88%

    26 November, Sunday

    Time Temperature Precipitation Wind Pressure Humidity
    00:00 -8°C° 0.1 mm 1 mps 473 mmHg 87%
    01:00 -9°C° 0.1 mm 1 mps 472 mmHg 85%
    02:00 -9°C° 0.1 mm 1 mps 472 mmHg 84%
    03:00 -10°C° 0 mm 1 mps 471 mmHg 82%
    04:00 -12°C° 0 mm 2 mps 471 mmHg 80%
    05:00 -12°C° 0 mm 2 mps 471 mmHg 79%
    06:00 -12°C° 0 mm 2 mps 471 mmHg 77%
    07:00 -12°C° 0 mm 2 mps 472 mmHg 75%
    08:00 -13°C° 0 mm 3 mps 472 mmHg 73%
    09:00 -10°C° 0 mm 3 mps 473 mmHg 69%
    10:00 -8°C° 0 mm 3 mps 474 mmHg 65%
    11:00 -7°C° 0 mm 3 mps 475 mmHg 60%
    12:00 -6°C° 0 mm 3 mps 475 mmHg 59%
    13:00 -6°C° 0 mm 3 mps 475 mmHg 57%
    14:00 -6°C° 0 mm 3 mps 475 mmHg 55%
    15:00 -6°C° 0 mm 2 mps 475 mmHg 62%
    16:00 -8°C° 0 mm 2 mps 474 mmHg 68%
    17:00 -9°C° 0 mm 2 mps 473 mmHg 75%
    18:00 -9°C° 0 mm 1 mps 473 mmHg 77%
    19:00 -9°C° 0 mm 1 mps 473 mmHg 79%
    20:00 -10°C° 0 mm 1 mps 473 mmHg 81%
    21:00 -10°C° 0 mm 1 mps 473 mmHg 79%
    22:00 -10°C° 0 mm 1 mps 472 mmHg 77%
    23:00 -11°C° 0 mm 1 mps 472 mmHg 76%

    27 November, Monday

    Time Temperature Precipitation Wind Pressure Humidity
    00:00 -11°C° 0 mm 1 mps 472 mmHg 72%
    01:00 -13°C° 0 mm 2 mps 471 mmHg 68%
    02:00 -13°C° 0 mm 2 mps 471 mmHg 65%
    03:00 -14°C° 0 mm 2 mps 471 mmHg 61%
    04:00 -14°C° 0 mm 2 mps 470 mmHg 57%
    05:00 -14°C° 0 mm 2 mps 470 mmHg 53%
    06:00 -14°C° 0 mm 2 mps 470 mmHg 50%
    07:00 -14°C° 0 mm 2 mps 470 mmHg 47%
    08:00 -13°C° 0 mm 2 mps 471 mmHg 43%
    09:00 -12°C° 0 mm 2 mps 472 mmHg 39%
    10:00 -9°C° 0 mm 2 mps 472 mmHg 34%
    11:00 -6°C° 0 mm 1 mps 473 mmHg 29%
    12:00 -6°C° 0 mm 1 mps 473 mmHg 31%
    13:00 -6°C° 0 mm 2 mps 473 mmHg 33%
    14:00 -6°C° 0 mm 2 mps 473 mmHg 35%
    15:00 -6°C° 0 mm 1 mps 472 mmHg 41%
    16:00 -7°C° 0 mm 1 mps 471 mmHg 47%
    17:00 -8°C° 0 mm 1 mps 471 mmHg 53%
    18:00 -8°C° 0 mm 1 mps 471 mmHg 56%
    19:00 -9°C° 0 mm 1 mps 471 mmHg 58%
    20:00 -9°C° 0 mm 1 mps 471 mmHg 61%
    21:00 -9°C° 0 mm 1 mps 471 mmHg 62%
    22:00 -12°C° 0 mm 2 mps 470 mmHg 64%
    23:00 -12°C° 0 mm 2 mps 470 mmHg 65%

    28 November, Tuesday

    Time Temperature Precipitation Wind Pressure Humidity
    00:00 -12°C° 0 mm 2 mps 470 mmHg 66%
    01:00 -13°C° 0 mm 2 mps 470 mmHg 67%
    02:00 -13°C° 0 mm 2 mps 469 mmHg 68%
    03:00 -13°C° 0 mm 2 mps 469 mmHg 68%
    04:00 -13°C° 0 mm 2 mps 469 mmHg 68%
    05:00 -14°C° 0 mm 2 mps 469 mmHg 68%
    06:00 -13°C° 0 mm 2 mps 469 mmHg 67%
    07:00 -13°C° 0 mm 2 mps 469 mmHg 66%
    08:00 -14°C° 0 mm 3 mps 470 mmHg 64%
    09:00 -10°C° 0 mm 2 mps 471 mmHg 58%
    10:00 -8°C° 0 mm 2 mps 472 mmHg 52%
    11:00 -6°C° 0 mm 1 mps 473 mmHg 45%
    12:00 -4°C° 0 mm 1 mps 473 mmHg 45%
    13:00 -4°C° 0 mm 1 mps 473 mmHg 45%
    14:00 -5°C° 0 mm 2 mps 473 mmHg 45%
    15:00 -4°C° 0 mm 1 mps 472 mmHg 49%
    16:00 -6°C° 0 mm 1 mps 471 mmHg 54%
    17:00 -7°C° 0 mm 1 mps 471 mmHg 59%
    18:00 -7°C° 0 mm 1 mps 471 mmHg 61%
    19:00 -8°C° 0 mm 1 mps 471 mmHg 62%
    20:00 -8°C° 0 mm 1 mps 471 mmHg 64%
    21:00 -8°C° 0 mm 1 mps 471 mmHg 65%
    22:00 -8°C° 0 mm 1 mps 471 mmHg 67%
    23:00 -9°C° 0 mm 2 mps 471 mmHg 69%
    Show more